TURKSAT 2A

Last updated on Nov. 12, 2016, 1:19 a.m. UTC

1 26666U 01002A   16316.57813976 -.00000047  00000-0  00000+0 0  9993
2 26666   0.6918  85.3062 0010383 199.8115  74.8048  0.98206576 58013
UTC
Height (km)
Latitude
Longitude
Inclination
Orbital Period
UTC large
Height (km)
Speed (km/s)
/
Latitude / Longitude
Inclination (degrees)
Orbital Period (minutes)
Azimuth
Elevation
Range (km)
Doppler Factor
iOS Compass Heading
iOS Angle

Next 30 passes for location: Hong Kong

Rise time Rise Azimuth (degrees) Set time Set Azimuth (degrees) Duration Max altitude (degrees)

No matching passes for this satellites